FW2998 Weather Reports


time (UTC)temp
C
wind
direction
speed
KPH
gust
KPH
rain 1hr
cm
rain 24hr
cm
rain mn
cm
humidity
%
barometer
mb
20260509141542 19 0 0.0 1.6 0.00 0.20 0.10 86 1013.6
20260509141020 19 0 0.0 1.6 0.00 0.20 0.10 86 1013.5
20260509140519 18 0 0.0 1.6 0.00 0.20 0.10 86 1013.4
20260509140052 18 0 0.0 1.6 0.00 0.20 0.10 86 1013.5
20260509135520 18 0 0.0 1.6 0.00 0.23 0.10 86 1013.6
20260509135020 18 0 0.0 1.6 0.00 0.23 0.10 86 1013.5
20260509134532 18 0 0.0 0.0 0.00 0.23 0.10 86 1013.6
20260509134021 18 0 0.0 0.0 0.00 0.23 0.10 86 1013.6
20260509133519 18 0 0.0 0.0 0.00 0.23 0.10 86 1013.6
20260509133039 18 0 0.0 0.0 0.00 0.23 0.10 86 1013.6
20260509132522 18 0 0.0 4.8 0.00 0.23 0.10 87 1013.7
20260509132020 18 0 0.0 4.8 0.00 0.23 0.10 87 1013.7
20260509131538 18 0 0.0 4.8 0.00 0.23 0.10 88 1013.6
20260509131022 18 0 0.0 3.2 0.00 0.23 0.10 89 1013.5
20260509130519 18 0 0.0 3.2 0.00 0.23 0.10 89 1013.6
20260509130038 17 0 0.0 0.0 0.00 0.23 0.10 89 1013.5
20260509125519 17 0 0.0 0.0 0.00 0.25 0.10 90 1013.4
20260509125021 17 0 0.0 1.6 0.00 0.25 0.10 91 1013.5
20260509124536 17 0 0.0 1.6 0.00 0.25 0.10 91 1013.4
20260509124019 17 0 0.0 1.6 0.00 0.25 0.10 91 1013.3
20260509123519 16 0 0.0 1.6 0.00 0.25 0.10 91 1013.3
20260509123037 16 0 0.0 1.6 0.00 0.25 0.10 91 1013.5
20260509122519 16 0 0.0 0.0 0.00 0.25 0.10 91 1013.5
20260509122020 16 0 0.0 0.0 0.00 0.25 0.10 91 1013.5
20260509121534 16 0 0.0 1.6 0.00 0.25 0.10 91 1013.7
20260509121020 16 0 0.0 1.6 0.00 0.25 0.10 91 1013.9
20260509120523 16 0 0.0 1.6 0.00 0.25 0.10 91 1013.9
20260509120033 16 0 0.0 1.6 0.03 0.25 0.10 91 1013.9
20260509115520 16 0 0.0 0.0 0.03 0.25 0.10 91 1014.0
20260509115019 15 0 0.0 0.0 0.03 0.25 0.10 91 1014.1
20260509114538 15 0 0.0 0.0 0.03 0.25 0.10 91 1014.0
20260509114020 15 0 0.0 0.0 0.03 0.25 0.10 91 1014.0
20260509113519 15 0 0.0 0.0 0.03 0.25 0.10 91 1014.0
20260509113036 15 0 0.0 0.0 0.03 0.25 0.10 90 1014.1
20260509112520 15 0 0.0 0.0 0.03 0.25 0.10 90 1014.2
20260509112022 15 0 0.0 0.0 0.03 0.25 0.10 90 1014.3
20260509111536 15 0 0.0 1.6 0.03 0.25 0.10 90 1014.1
20260509111022 15 0 0.0 1.6 0.03 0.25 0.10 90 1014.0
20260509110519 15 0 0.0 0.0 0.03 0.25 0.10 90 1013.9
20260509110035 15 0 0.0 0.0 0.00 0.23 0.08 90 1013.9
20260509105519 15 0 0.0 1.6 0.00 0.23 0.08 90 1014.0
20260509105023 15 0 0.0 1.6 0.00 0.23 0.08 89 1013.9
20260509104535 15 0 0.0 0.0 0.00 0.23 0.08 89 1013.8
20260509104020 15 0 0.0 0.0 0.00 0.23 0.08 89 1013.7
20260509103522 15 0 0.0 0.0 0.00 0.23 0.08 89 1013.5
20260509103046 15 0 0.0 0.0 0.00 0.23 0.08 89 1013.4
20260509102519 15 0 0.0 0.0 0.00 0.23 0.08 89 1013.2
20260509102023 15 0 0.0 0.0 0.00 0.23 0.08 88 1013.2
20260509101540 15 0 0.0 0.0 0.00 0.23 0.08 88 1013.3
20260509101022 15 0 0.0 0.0 0.03 0.23 0.08 88 1013.3
20260509100519 15 0 0.0 0.0 0.03 0.23 0.08 88 1013.3
20260509100038 15 0 0.0 0.0 0.03 0.23 0.08 88 1013.3
20260509095522 15 0 0.0 0.0 0.03 0.25 0.08 88 1012.9
20260509095026 15 0 0.0 0.0 0.03 0.25 0.08 88 1012.8
20260509094536 15 0 0.0 0.0 0.03 0.25 0.08 88 1012.7
20260509094019 15 0 0.0 1.6 0.03 0.25 0.08 88 1012.8
20260509093520 15 0 0.0 1.6 0.03 0.25 0.08 87 1012.6
20260509093039 15 0 0.0 1.6 0.03 0.25 0.08 87 1012.8
20260509092519 15 0 0.0 0.0 0.03 0.25 0.08 87 1012.8
20260509092019 15 0 0.0 0.0 0.03 0.25 0.08 87 1012.9
20260509091548 15 0 0.0 0.0 0.03 0.25 0.08 87 1012.7
20260509091023 15 0 0.0 0.0 0.00 0.23 0.05 87 1012.7
20260509090518 15 0 0.0 0.0 0.00 0.23 0.05 87 1012.8
20260509090050 15 0 0.0 0.0 0.00 0.23 0.05 87 1012.8
20260509085520 15 0 0.0 1.6 0.00 0.25 0.05 87 1012.8
20260509085019 15 0 0.0 1.6 0.00 0.25 0.05 87 1012.9
20260509084536 15 0 0.0 1.6 0.00 0.25 0.05 87 1012.9
20260509084019 15 0 0.0 0.0 0.00 0.25 0.05 87 1012.9
20260509083519 15 0 0.0 0.0 0.00 0.25 0.05 87 1013.0
20260509083042 15 0 0.0 0.0 0.00 0.25 0.05 87 1013.1
20260509082521 15 0 0.0 0.0 0.00 0.25 0.05 86 1013.2
20260509082020 15 0 0.0 0.0 0.00 0.25 0.05 86 1013.2
20260509081540 15 0 0.0 0.0 0.00 0.25 0.05 86 1013.2
20260509081020 15 0 0.0 0.0 0.00 0.25 0.05 86 1013.2
20260509080524 15 0 0.0 0.0 0.00 0.25 0.05 86 1013.2
20260509080046 15 0 0.0 0.0 0.00 0.25 0.05 86 1013.3
20260509075522 15 0 0.0 0.0 0.00 0.25 0.05 86 1013.3
20260509075022 15 0 0.0 0.0 0.00 0.25 0.05 86 1013.4
20260509074550 15 0 0.0 1.6 0.00 0.25 0.05 86 1013.4
20260509074025 15 0 0.0 1.6 0.00 0.25 0.05 85 1013.5
20260509073522 15 0 0.0 0.0 0.00 0.25 0.05 85 1013.5
20260509073054 15 0 0.0 0.0 0.00 0.25 0.05 85 1013.5
20260509072522 15 0 0.0 0.0 0.00 0.25 0.05 85 1013.7
20260509072018 15 0 0.0 0.0 0.00 0.25 0.05 85 1013.8
20260509071535 15 0 0.0 0.0 0.00 0.25 0.05 84 1013.8
20260509071019 15 0 0.0 0.0 0.00 0.25 0.05 84 1013.9
20260509070519 16 0 0.0 0.0 0.00 0.25 0.05 84 1013.9
20260509070036 16 0 0.0 0.0 0.00 0.25 0.05 84 1014.0
20260509065524 16 0 0.0 0.0 0.00 0.25 0.05 83 1013.8
20260509065022 16 0 0.0 0.0 0.00 0.25 0.05 83 1013.9
20260509064540 16 0 0.0 0.0 0.00 0.25 0.05 83 1013.8
20260509064020 16 0 0.0 0.0 0.03 0.25 0.05 83 1013.9
20260509063519 16 0 0.0 0.0 0.03 0.25 0.05 83 1013.9
20260509063052 16 0 0.0 0.0 0.03 0.25 0.05 83 1013.9
20260509062526 16 0 0.0 3.2 0.03 0.25 0.05 83 1013.8
20260509062021 16 0 0.0 3.2 0.03 0.25 0.05 83 1014.1
20260509061537 16 0 0.0 3.2 0.03 0.25 0.05 83 1014.4
20260509061023 16 0 0.0 0.0 0.03 0.25 0.05 82 1014.4
20260509060524 16 0 0.0 0.0 0.03 0.25 0.05 83 1014.6
20260509060048 16 0 0.0 0.0 0.03 0.25 0.05 83 1014.6
20260509055520 16 0 0.0 0.0 0.03 0.25 0.05 83 1014.7
20260509055025 16 0 0.0 0.0 0.03 0.25 0.05 83 1014.6
20260509054537 16 0 0.0 0.0 0.03 0.25 0.05 82 1014.7
20260509054020 16 0 0.0 0.0 0.00 0.23 0.03 82 1015.0
20260509053521 16 0 0.0 0.0 0.00 0.23 0.03 82 1015.2
20260509053052 16 0 0.0 0.0 0.00 0.23 0.03 81 1015.3
20260509052522 16 0 0.0 0.0 0.00 0.23 0.03 81 1015.4
20260509052020 16 0 0.0 0.0 0.00 0.23 0.03 81 1015.2
20260509051538 16 0 0.0 0.0 0.00 0.23 0.03 81 1015.2
20260509051021 16 0 0.0 0.0 0.00 0.23 0.03 81 1015.2
20260509050524 16 0 0.0 0.0 0.00 0.23 0.03 81 1015.3
20260509050038 16 0 0.0 0.0 0.03 0.23 0.03 80 1015.5
20260509045522 16 0 0.0 0.0 0.03 0.25 0.03 80 1015.6
20260509045019 16 0 0.0 0.0 0.03 0.25 0.03 79 1015.6
20260509044536 16 0 0.0 0.0 0.03 0.25 0.03 79 1015.5
20260509044023 16 0 0.0 0.0 0.03 0.25 0.03 79 1015.5
20260509043519 16 0 0.0 0.0 0.03 0.25 0.03 78 1015.3
20260509043047 16 0 0.0 0.0 0.03 0.25 0.03 79 1015.3
20260509042519 16 0 0.0 0.0 0.03 0.25 0.03 79 1015.2
20260509042022 16 0 0.0 0.0 0.03 0.25 0.03 78 1015.5
20260509041541 16 0 0.0 0.0 0.03 0.25 0.03 78 1015.8
20260509041021 16 0 0.0 0.0 0.03 0.25 0.03 77 1016.0
20260509040520 16 0 0.0 0.0 0.03 0.25 0.03 77 1015.9
20260509040058 16 0 0.0 0.0 0.00 0.23 0.00 76 1015.8
20260509035521 16 0 0.0 0.0 0.00 0.23 0.23 75 1016.1
20260509035020 16 0 0.0 0.0 0.00 0.23 0.23 74 1016.1
20260509034538 16 0 0.0 0.0 0.00 0.23 0.23 74 1016.0
20260509034021 16 0 0.0 0.0 0.00 0.23 0.23 72 1016.0
20260509033521 16 0 0.0 0.0 0.00 0.23 0.23 72 1015.9
20260509033047 16 0 0.0 0.0 0.00 0.23 0.23 71 1015.8
20260509032520 16 0 0.0 0.0 0.00 0.23 0.23 70 1015.7
20260509032020 16 0 0.0 0.0 0.00 0.23 0.23 70 1015.7
20260509031538 16 0 0.0 0.0 0.00 0.23 0.23 70 1015.5
20260509031020 16 0 0.0 1.6 0.00 0.23 0.23 69 1015.7
20260509030522 16 0 0.0 1.6 0.00 0.23 0.23 69 1015.8
20260509030032 16 0 0.0 0.0 0.00 0.23 0.23 68 1015.7
20260509025522 17 0 0.0 0.0 0.00 0.25 0.23 68 1015.9
20260509025024 17 0 0.0 0.0 0.00 0.25 0.23 68 1015.8
20260509024532 17 0 0.0 0.0 0.00 0.25 0.23 69 1015.8
20260509024025 17 0 0.0 0.0 0.00 0.25 0.23 68 1015.8
20260509023521 17 0 0.0 0.0 0.00 0.25 0.23 68 1015.9
20260509023032 17 0 0.0 0.0 0.00 0.25 0.23 67 1015.9
20260509022521 17 0 0.0 0.0 0.00 0.25 0.23 67 1015.8
20260509022020 17 0 0.0 0.0 0.00 0.25 0.23 67 1015.9
20260509021538 17 0 0.0 0.0 0.00 0.25 0.23 67 1016.0
20260509021022 17 0 0.0 0.0 0.00 0.25 0.23 66 1015.7
20260509020526 17 0 0.0 0.0 0.00 0.25 0.23 66 1015.7
20260509020035 17 0 0.0 0.0 0.00 0.25 0.23 65 1015.7
20260509015520 17 0 0.0 0.0 0.00 0.25 0.23 65 1015.8
20260509015019 18 0 0.0 0.0 0.00 0.25 0.23 65 1015.8
20260509014537 18 0 0.0 0.0 0.00 0.25 0.23 65 1015.8
20260509014022 18 0 0.0 0.0 0.00 0.25 0.23 64 1015.6
20260509013522 18 0 0.0 0.0 0.00 0.25 0.23 64 1015.6
20260509013035 18 0 0.0 0.0 0.00 0.25 0.23 64 1015.6
20260509012520 18 0 0.0 0.0 0.00 0.25 0.23 64 1015.5
20260509012021 18 0 0.0 0.0 0.03 0.25 0.23 63 1015.4
20260509011534 18 0 0.0 0.0 0.03 0.25 0.23 63 1015.3
20260509011020 18 0 0.0 0.0 0.03 0.25 0.23 63 1015.3
20260509010520 18 0 0.0 0.0 0.03 0.25 0.23 62 1015.4
20260509010036 18 0 0.0 0.0 0.03 0.25 0.23 62 1015.3
20260509005523 18 0 0.0 0.0 0.03 0.25 0.23 61 1015.5
20260509005019 19 0 0.0 0.0 0.03 0.25 0.23 61 1015.4
20260509004537 19 0 0.0 0.0 0.03 0.25 0.23 61 1015.5
20260509004020 19 0 0.0 0.0 0.03 0.25 0.23 60 1015.4
20260509003519 19 0 0.0 0.0 0.03 0.25 0.23 60 1015.3
20260509003037 19 0 0.0 0.0 0.03 0.25 0.23 59 1015.2
20260509002522 20 0 0.0 0.0 0.03 0.25 0.23 58 1015.0
20260509002019 20 0 0.0 0.0 0.00 0.23 0.20 57 1014.9
20260509001537 20 0 0.0 0.0 0.00 0.23 0.20 57 1014.9
20260509001018 20 0 0.0 0.0 0.00 0.23 0.20 57 1014.9
20260509000519 20 0 0.0 0.0 0.00 0.23 0.20 56 1014.8
20260509000035 20 0 0.0 0.0 0.00 0.23 0.20 56 1014.9
20260508235521 20 0 0.0 0.0 0.00 0.25 0.20 56 1014.7
20260508235023 20 0 0.0 0.0 0.00 0.25 0.20 55 1014.9
20260508234532 20 0 0.0 0.0 0.00 0.25 0.20 56 1014.7
20260508234022 20 0 0.0 0.0 0.00 0.25 0.20 55 1014.7
20260508233523 21 0 0.0 0.0 0.00 0.25 0.20 55 1014.8
20260508233039 21 0 0.0 0.0 0.00 0.25 0.20 55 1014.7
20260508232521 21 0 0.0 0.0 0.00 0.25 0.20 55 1014.6
20260508232020 21 0 0.0 3.2 0.00 0.25 0.20 54 1014.7
20260508231537 21 0 0.0 3.2 0.00 0.25 0.20 54 1014.9
20260508231020 21 0 0.0 0.0 0.00 0.25 0.20 54 1014.8
20260508230520 21 0 0.0 1.6 0.00 0.25 0.20 54 1014.8
20260508230036 21 0 0.0 1.6 0.00 0.25 0.20 52 1014.9
20260508225525 21 0 0.0 0.0 0.00 0.28 0.20 53 1014.7
20260508225022 21 0 0.0 0.0 0.00 0.28 0.20 53 1014.7
20260508224547 21 0 0.0 0.0 0.00 0.28 0.20 53 1014.9
20260508224023 21 0 0.0 0.0 0.00 0.28 0.20 53 1014.7
20260508223524 21 0 0.0 3.2 0.00 0.28 0.20 52 1014.7
20260508223035 21 0 0.0 3.2 0.00 0.28 0.20 51 1014.7
20260508222520 21 0 0.0 4.8 0.03 0.28 0.20 51 1014.8
20260508222019 21 0 0.0 4.8 0.03 0.28 0.20 50 1014.9
20260508221535 22 0 0.0 3.2 0.03 0.28 0.20 50 1014.9
20260508221020 22 0 0.0 4.8 0.03 0.28 0.20 49 1014.7
20260508220521 22 102 0.0 4.8 0.03 0.28 0.20 49 1015.1
20260508220044 22 0 0.0 4.8 0.03 0.28 0.20 48 1014.9
20260508215524 22 0 0.0 1.6 0.03 0.28 0.20 49 1014.9
20260508215018 22 0 0.0 0.0 0.03 0.28 0.20 50 1014.9
20260508214543 22 0 0.0 0.0 0.03 0.28 0.20 49 1014.9
20260508214021 22 0 0.0 0.0 0.03 0.28 0.20 50 1014.7
20260508213518 22 0 0.0 0.0 0.03 0.28 0.20 49 1014.9
20260508213039 22 0 0.0 4.8 0.00 0.25 0.18 51 1014.9
20260508212518 22 0 0.0 4.8 0.00 0.25 0.18 46 1014.8
20260508212019 22 0 1.6 6.4 0.00 0.25 0.18 46 1014.7
20260508211538 23 98 1.6 6.4 0.00 0.25 0.18 45 1014.5
20260508211020 23 0 0.0 6.4 0.00 0.25 0.18 44 1014.7
20260508210521 23 98 0.0 4.8 0.00 0.25 0.18 44 1014.8
20260508210039 23 0 0.0 4.8 0.00 0.25 0.18 45 1014.8
20260508205518 23 0 0.0 1.6 0.00 0.28 0.18 45 1014.9
20260508205018 23 0 0.0 6.4 0.00 0.28 0.18 44 1015.1
20260508204539 23 0 1.6 6.4 0.00 0.28 0.18 43 1015.1
20260508204018 24 0 0.0 1.6 0.00 0.28 0.18 42 1015.3
20260508203518 24 0 0.0 3.2 0.00 0.28 0.18 45 1015.1
20260508203040 24 92 0.0 6.4 0.00 0.28 0.18 43 1015.1
20260508202523 24 0 0.0 6.4 0.00 0.28 0.18 41 1015.2
20260508202018 24 0 0.0 3.2 0.00 0.28 0.18 44 1015.2
20260508201536 24 0 0.0 4.8 0.00 0.28 0.18 46 1015.2
20260508201018 24 0 0.0 4.8 0.00 0.28 0.18 42 1015.1
20260508200518 24 263 0.0 3.2 0.00 0.28 0.18 41 1015.1
20260508200036 24 0 0.0 3.2 0.00 0.28 0.18 43 1015.1
20260508195517 24 0 0.0 6.4 0.00 0.30 0.18 41 1015.2
20260508195020 24 0 0.0 6.4 0.00 0.30 0.18 41 1015.3
20260508194538 24 0 0.0 4.8 0.03 0.30 0.18 41 1015.3
20260508194018 24 0 0.0 4.8 0.03 0.30 0.18 41 1015.3
20260508193521 24 0 0.0 8.0 0.03 0.30 0.18 42 1015.3
20260508193039 24 0 1.6 8.0 0.03 0.30 0.18 39 1015.4
20260508192518 25 0 0.0 4.8 0.03 0.30 0.18 44 1015.6
20260508192022 25 0 0.0 4.8 0.03 0.30 0.18 41 1015.8
20260508191545 25 0 0.0 4.8 0.03 0.30 0.18 42 1015.9
20260508191021 25 227 0.0 4.8 0.03 0.30 0.18 41 1016.1
20260508190521 25 0 0.0 3.2 0.03 0.30 0.18 44 1016.1
20260508190044 24 0 0.0 4.8 0.03 0.30 0.18 43 1016.2
20260508185518 24 0 0.0 4.8 0.03 0.30 0.18 45 1016.1
20260508185020 24 0 0.0 6.4 0.03 0.30 0.18 41 1016.2
20260508184539 24 0 0.0 6.4 0.00 0.28 0.15 41 1016.2
20260508184018 25 0 0.0 4.8 0.00 0.28 0.15 42 1016.2
20260508183520 25 0 0.0 4.8 0.00 0.28 0.15 46 1016.3
20260508183036 24 0 1.6 4.8 0.00 0.28 0.15 43 1016.6
20260508182520 24 0 0.0 6.4 0.00 0.28 0.15 46 1016.5
20260508182021 24 234 1.6 6.4 0.00 0.28 0.15 43 1016.5
20260508181543 24 132 0.0 4.8 0.00 0.28 0.15 45 1016.7
20260508181021 23 0 0.0 4.8 0.00 0.28 0.15 47 1016.6
20260508180520 23 0 0.0 6.4 0.00 0.28 0.15 46 1016.8
20260508180038 23 279 1.6 6.4 0.00 0.28 0.15 44 1017.0
20260508175522 23 0 0.0 3.2 0.00 0.30 0.15 44 1016.8
20260508175021 23 0 0.0 3.2 0.03 0.30 0.15 45 1017.0
20260508174541 23 169 0.0 3.2 0.03 0.30 0.15 47 1017.1
20260508174018 23 87 0.0 6.4 0.03 0.30 0.15 44 1017.0
20260508173522 23 86 0.0 6.4 0.03 0.30 0.15 46 1017.2
20260508173037 23 85 1.6 6.4 0.03 0.30 0.15 45 1017.1
20260508172523 22 0 0.0 6.4 0.03 0.30 0.15 46 1017.1
20260508172018 22 99 0.0 6.4 0.03 0.30 0.15 48 1017.3
20260508171543 22 110 1.6 4.8 0.03 0.30 0.15 48 1017.4
20260508171020 22 0 0.0 1.6 0.03 0.30 0.15 50 1017.5
20260508170519 22 0 0.0 1.6 0.03 0.30 0.15 47 1017.6
20260508170036 22 76 0.0 3.2 0.03 0.30 0.15 47 1017.7
20260508165518 22 0 0.0 3.2 0.03 0.33 0.15 46 1017.8
20260508165019 22 0 0.0 3.2 0.00 0.30 0.13 46 1017.7
20260508164536 22 0 0.0 3.2 0.00 0.30 0.13 47 1018.0
20260508164022 22 0 0.0 3.2 0.00 0.30 0.13 48 1018.1
20260508163518 22 0 0.0 3.2 0.00 0.30 0.13 50 1018.0
20260508163053 22 0 0.0 4.8 0.00 0.30 0.13 48 1018.1
20260508162523 22 0 0.0 4.8 0.00 0.30 0.13 50 1018.2
20260508162021 22 0 0.0 4.8 0.00 0.30 0.13 51 1018.4
20260508161550 21 0 0.0 4.8 0.00 0.30 0.13 50 1018.4
20260508161019 21 191 0.0 3.2 0.00 0.30 0.13 53 1018.5
20260508160525 21 0 0.0 3.2 0.00 0.30 0.13 52 1018.5
20260508160036 20 0 0.0 3.2 0.00 0.30 0.13 52 1018.6
20260508155521 20 0 0.0 4.8 0.00 0.30 0.13 52 1018.7
20260508155019 20 351 0.0 4.8 0.00 0.30 0.13 56 1018.7
20260508154535 20 87 0.0 4.8 0.00 0.30 0.13 51 1018.8
20260508154024 20 0 0.0 4.8 0.00 0.30 0.13 54 1018.8
20260508153519 20 0 0.0 4.8 0.00 0.30 0.13 52 1018.8
20260508153052 20 0 0.0 4.8 0.00 0.30 0.13 54 1018.8
20260508152521 20 0 0.0 3.2 0.00 0.30 0.13 54 1018.7
20260508152020 20 0 0.0 4.8 0.00 0.30 0.13 54 1018.7
20260508151539 20 101 0.0 4.8 0.00 0.30 0.13 53 1018.6
20260508151023 20 0 0.0 4.8 0.00 0.30 0.13 54 1018.7
20260508150521 20 128 0.0 6.4 0.00 0.30 0.13 53 1018.7
20260508150032 19 0 0.0 6.4 0.00 0.30 0.13 55 1018.7
20260508145518 19 103 0.0 6.4 0.00 0.33 0.13 50 1018.8
20260508145021 19 0 0.0 3.2 0.00 0.33 0.13 52 1018.8
20260508144537 20 0 0.0 3.2 0.03 0.33 0.13 51 1018.8
20260508144021 20 105 0.0 4.8 0.03 0.33 0.13 54 1018.7
20260508143520 20 97 1.6 6.4 0.03 0.33 0.13 50 1018.7
20260508143056 20 0 0.0 6.4 0.03 0.33 0.13 52 1018.7
20260508142521 20 0 0.0 9.7 0.03 0.33 0.13 52 1018.6
20260508142023 20 84 1.6 9.7 0.03 0.33 0.13 50 1018.6